Location: Lafig�re
(44.4503°N, 4.0357°E)
Time: 15:13:13
(UTC+00:00)

Vanguard 2 Rocket - Pass Details

Date: 27 January 2021
Orbit: 554 x 3325 km, 32.9° (Epoch: 06 March)

Event Time Altitude Azimuth Distance (km) Brightness Sun altitude
Rises 12:31:07 0° 219° (SW) 7,261 12.4 26.7°
Reaches altitude 10° 12:37:04 10° 211° (SSW) 6,075 12.5 26.6°
Maximum altitude 12:51:45 32° 158° (SSE) 3,703 11.1 26.0°
Drops below altitude 10° 13:01:57 10° 102° (ESE) 4,222 10.3 25.5°
Sets 13:05:11 0° 92° (E) 4,855 10.5 25.3°
